SL-16 DEB, 39860

Orbit data source: Space-Track

SL-16 DEB, 39860 is space debris in LEO originally from a launch on Fri, 25 Dec 1992 UTC launched from the Tyuratam Missile And Space Complex (TTMTR). Debris objects in space refer to the collection of defunct objects orbiting the Earth. Examples of debris include non-operational satellites, rocket bodies, and fragments generated from explosions, collisions, or faulty payload assembly.

Loading next visibility...
Identifier
39860, 1992-093LN
Orbit
LEO
Country
Flag of CISCIS
Related business
Manufacturer
Unknown
Mission
Spacecraft
Bus & Motor
Unknown
Mass
Unknown
Launch date (UTC)
1992-12-25 (33 years ago)
Launch vehicle
Unknown
Launch site
Tyuratam Missile And Space Complex (TTMTR)
Object type
Payload
Rocket body
Debris
Shape & HBR
Unknown shape, 0.1 m
Radar Cross Section
Small (<0.1 m²)

Expand to show TLE details & history
Last TLE update: 1 week ago

TLE from 1 week ago
0 SL-16 DEB
1 39860U 92093LN  26125.62428077  .00001647  00000-0  62095-3 0  9994
2 39860  70.7842  86.7723 0029236 333.5976  26.3663 14.32708246620457
Epoch: 2026-05-05T14:58Z
TLE epoch observation values (Epoch: 2026-05-05T14:58:57.858Z)
Latitude
-0.00001°
Longitude
-1.46523°
Altitude
766.35 km
Speed
7.481 km/s
True Right ascension
05h 47m 05s
True Declination
0° 00' 00"
Sunlit
Object was in daylight at epoch
Visualization orbit readout
Latitude
Unknown
Longitude
Unknown
Altitude
Unknown
Speed
Unknown
Apparent Right ascension
Unknown
Apparent Declination
Unknown
Sunlit
N/A
Visualization observer readout
Local Sidereal Time
19:34:09
Azimuth
Unknown
Elevation
Unknown
Doppler factor
Unknown
Orbital elements
Apogee altitude
801.551 km
Perigee altitude
759.692 km
Semi-major axis
7,158.759 km
Eccentricity
0.00292
Inclination
70.7842°
RAAN
86.7723°
Arg. of periapsis
333.5976°
True anomaly
26.51557°
Mean anomaly
26.3663°
Eccentric anomaly
26.44089°
Mean motion
3.58333 °/min
Orbital period
100.47 mins
BSTAR
0.00062095
Loading maneuver chart data...
Computing Atmospheric mass density...
Loading historical data...
Loading historical data...
Loading historical data...
Loading historical data...
Loading historical data...
Loading historical data...
Loading historical data...

Documentation

Showing up to 5 results
|